Regional Weather Roundup
Issued by NWS

Home | Current Version | Previous Version | Text Only | Print | Product List | Glossary On
Versions: 1 2 3 4 5 6 7 8 9 10 11 12 13 14 15 16 17 18 19 20 21 22 23 24 25 26 27 28 29 30 31 32 33 34 35 36 37 38 39 40 41 42 43 44 45 46 47 48 49 50
000
ASUS43 KLSX 262207
RWRMO

WEATHER SUMMARY FOR MISSOURI
NATIONAL WEATHER SERVICE SPRINGFIELD MO
500 PM CDT TUE AUG 26 2014

NOTE: "FAIR" INDICATES FEW OR NO CLOUDS BELOW 12,000 FEET WITH NO
       SIGNIFICANT WEATHER AND/OR OBSTRUCTIONS TO VISIBILITY.
       CURRENT SKY AND/OR WEATHER CONDITIONS ARE NOT AVAILABLE FOR
       CHILLICOTHE AND FARMINGTON.

MOZ001>031-035>038-043-044-053-054-262300-
...NORTHERN AND WESTERN MISSOURI...

CITY           SKY/WX    TMP DP  RH WIND       PRES   REMARKS
KANSAS CTY INT MOSUNNY   89  72  56 NE8       30.06F HX  96
KANSAS C DTWN  MOSUNNY   93  72  50 E7        30.02F HX 101
LEE`S SUMMIT   SUNNY     92  71  50 NE5       30.05F HX  98
ST JOSEPH      SUNNY     88  71  57 VRB3      30.06F HX  94
CHILLICOTHE      N/A     87  71  58 CALM      30.07F HX  93
KIRKSVILLE     MOSUNNY   85  71  63 NE7       30.09F HX  90

$$
MOZ066>068-077>081-088>096-101>105-262300-
...SOUTHWEST MISSOURI...

CITY           SKY/WX    TMP DP  RH WIND       PRES   REMARKS
SPRINGFIELD    PTSUNNY   91  66  43 NE15G26   30.04R THUNDER HX  93
JOPLIN         SUNNY     98  63  31 CALM      30.01F HX 100

$$
MOZ032>034-039>042-045>050-055>058-069>072-262300-
...CENTRAL MISSOURI...

CITY           SKY/WX    TMP DP  RH WIND       PRES   REMARKS
COLUMBIA       SUNNY     95  70  44 N3        30.04F HX 101
JEFFERSON CITY SUNNY     96  71  44 NW8       30.00F HX 103
ROLLA          PTSUNNY   75  64  68 S8        30.04F
SEDALIA        SUNNY     94  72  48 N6        30.05F HX 102
WHITEMAN AFB   SUNNY     92  37  14 E5        30.03F
OSAGE BEACH    MOSUNNY   93  72  49 NE12      30.03F HX 100

$$
MOZ051-052-059>065-262300-
...EAST CENTRAL MISSOURI...

CITY           SKY/WX    TMP DP  RH WIND       PRES   REMARKS
ST LOUIS INTL  PTSUNNY   91  70  49 SE12      30.04S THUNDER HX  96
SPIRIT OF STL  PTSUNNY   93  74  53 SW3       30.01F HX 103
ST CHARLES     SUNNY     94  73  50 SW3       30.02S HX 103

$$
MOZ072>076-082>087-097>100-106>115-262300-
...SOUTH CENTRAL AND SOUTHEAST MISSOURI...

CITY           SKY/WX    TMP DP  RH WIND       PRES   REMARKS
CAPE GIRARDEAU SUNNY     93  74  53 E7        30.03S HX 103
FARMINGTON     PTSUNNY   97  68  38 E8        30.06F HX 101
POPLAR BLUFF   SUNNY     94  68  42 E3        30.01F HX  98
WEST PLAINS    MOSUNNY   94  64  37 E7        30.07F HX  95

$$



USA.gov is the U.S. government's official web portal to all federal, state and local government web resources and services.